Theta_e
314 314 314 314 314 314 315 315 321 316 317 315 313 313 312 310 309 308 307 307 306 305 306 307 307 308 308 308 307 307 304 302 301 300 300 300 299 298 296 295 293 291 290 290
315 314 314 315 315 315 314 313 313 314 314 310 312 313 313 312 310 310 309 308 306 305 305 306 307 306 307 306 305 304 303 301 300 298 297 297 297 296 294 292 291 290 290 291
316 313 313 315 313 313 313 313 313 313 311 308 308 311 313 313 311 311 309 308 307 305 305 307 308 308 306 306 305 302 301 299 298 297 296 295 294 293 292 291 291 292 292 290
314 312 315 312 311 312 312 312 311 310 310 309 308 309 310 309 308 308 308 307 305 304 303 307 308 308 307 306 304 302 300 299 297 297 296 294 294 293 292 292 292 292 290 289
313 311 309 310 309 308 312 311 307 308 310 310 308 307 307 306 305 306 304 303 303 305 304 305 307 307 306 303 302 300 299 297 296 296 295 294 293 293 292 292 291 290 289 288
312 314 312 309 306 305 306 308 307 306 304 304 306 306 309 305 303 303 302 301 298 303 304 304 304 305 303 300 300 298 298 298 297 296 297 295 294 293 293 292 291 289 288 287
307 311 314 304 302 304 310 309 302 303 301 302 303 302 301 301 300 301 300 299 299 300 302 303 303 304 301 299 298 300 299 296 294 294 296 296 294 293 293 290 289 288 287 286
306 308 309 301 302 305 304 302 301 300 299 300 300 299 298 298 297 299 299 298 300 298 297 299 301 301 297 296 298 297 296 295 294 293 293 294 294 292 290 289 287 285 285 284
303 303 303 301 300 302 301 301 299 299 297 297 299 297 297 297 296 296 297 298 300 300 296 296 297 300 296 297 297 297 296 295 294 293 292 292 291 289 288 287 285 283 282 282
298 297 298 300 300 300 300 300 298 297 296 297 298 295 297 297 295 295 295 295 296 297 296 295 296 296 296 296 296 295 294 294 293 292 291 291 290 289 287 285 283 282 281 280
296 295 295 295 295 296 296 298 297 297 297 297 298 299 298 298 297 296 296 296 295 296 295 294 294 293 293 293 294 292 292 291 291 291 290 289 289 288 287 286 286 284 282 282
294 294 294 294 294 295 296 296 295 295 296 297 298 299 299 299 297 296 296 297 295 295 295 294 294 293 293 293 293 292 291 290 290 289 288 288 287 286 286 287 286 285 286 285
292 292 292 293 293 293 294 294 295 295 295 295 298 300 301 301 299 297 297 297 297 295 295 295 293 292 292 293 292 291 290 290 290 288 287 286 285 285 284 284 285 284 284 284
293 293 293 293 292 293 293 293 294 295 295 297 300 301 301 301 301 298 298 298 298 297 295 294 292 292 293 293 291 291 290 290 288 287 287 286 285 284 284 283 283 283 283 282
294 295 295 295 294 294 293 293 293 293 295 297 297 298 299 300 300 300 298 297 298 297 296 295 292 291 292 292 290 290 290 288 288 287 286 285 284 284 283 283 283 282 282 282
296 296 297 296 295 295 294 293 293 294 293 293 295 298 299 299 299 300 298 296 296 294 294 294 294 295 293 292 291 290 287 288 288 286 285 284 283 283 283 282 282 282 282 282
295 296 295 295 296 295 294 293 294 296 298 298 299 299 299 298 298 299 298 296 297 296 296 297 296 295 294 292 288 287 287 287 287 285 284 283 282 282 282 281 281 281 282 282
295 295 294 293 294 294 295 298 298 295 294 295 293 296 296 295 297 298 296 295 294 294 295 295 296 294 292 290 287 287 287 287 285 284 283 282 281 281 281 281 281 281 282 282
293 293 293 292 292 293 293 291 291 290 291 291 291 293 292 295 295 294 293 293 292 290 291 294 294 293 290 287 287 287 286 285 284 283 282 281 281 281 281 281 281 281 281 281
291 290 290 290 289 289 290 289 289 290 291 291 291 292 292 289 290 290 292 291 291 294 293 292 292 290 288 287 287 287 285 285 283 283 282 280 279 279 280 281 281 280 280 280
291 290 290 290 290 290 290 290 290 290 290 291 291 290 289 289 290 288 288 290 288 292 292 290 288 287 287 287 286 285 285 284 283 283 282 281 280 280 280 280 280 280 280 280
291 290 290 290 290 290 290 290 290 290 290 290 291 291 290 289 290 289 290 289 288 287 287 287 287 288 288 286 286 286 285 285 283 283 282 281 280 279 280 280 280 280 280 280
291 290 290 289 290 290 290 290 289 289 289 289 290 290 290 289 289 289 288 289 289 288 287 287 287 287 286 286 287 286 285 285 283 283 282 282 280 279 280 281 281 281 281 280
290 291 291 291 291 291 291 290 289 289 289 290 290 290 290 289 289 290 291 290 289 287 287 287 287 287 287 287 287 286 285 284 282 282 281 281 281 282 282 282 282 281 281 281
292 292 292 292 291 290 291 291 290 288 287 287 288 289 290 290 290 290 290 288 287 287 287 287 287 286 287 286 286 285 285 284 283 283 283 283 283 282 283 282 282 282 282 281
292 292 292 291 291 291 290 291 290 289 287 286 286 287 288 289 289 289 289 289 287 287 288 287 286 286 286 286 285 285 285 284 284 283 284 284 283 283 283 282 282 282 282 282
288 287 289 289 290 290 290 290 289 289 288 286 286 289 288 288 288 289 289 288 287 287 287 287 287 286 286 286 285 285 285 284 284 284 284 283 283 283 283 282 282 282 282 282
Wind_Speed
1 7 6 5 4 2 2 3 10 7 9 9 10 12 12 14 12 11 9 7 8 7 7 12 16 19 20 22 23 26 26 25 24 22 21 20 19 20 20 20 19 19 18 17
4 7 7 5 9 13 13 10 8 6 15 6 14 14 12 15 16 15 12 9 9 8 7 9 19 24 25 25 25 25 24 24 24 23 24 24 24 24 25 23 22 20 18 17
4 5 7 6 16 18 11 15 12 12 17 9 9 12 15 20 13 15 12 12 10 10 9 16 23 29 30 30 27 27 27 25 26 26 26 26 26 24 22 23 21 18 16 14
3 3 9 6 11 19 19 18 17 18 19 18 9 12 14 14 8 11 12 9 9 7 11 22 26 27 28 29 28 28 27 26 27 27 25 24 23 22 22 21 19 18 17 16
5 10 8 7 5 7 11 10 4 11 21 20 6 4 14 5 10 12 9 10 9 15 15 21 26 29 29 27 28 28 28 28 27 26 23 22 22 23 22 20 20 19 18 19
2 4 5 1 4 6 2 5 7 7 10 11 4 4 10 3 9 11 11 9 11 16 13 18 23 27 28 28 29 30 30 29 27 27 27 27 26 25 23 21 21 21 21 20
10 8 3 2 8 6 9 1 7 5 5 7 4 4 13 14 12 6 5 7 8 14 20 21 22 26 25 26 28 28 25 25 25 26 26 25 24 23 23 23 22 22 22 22
5 6 7 3 4 2 2 3 5 4 4 5 7 8 8 11 12 9 7 7 14 14 14 21 26 27 20 19 21 18 19 19 22 23 24 25 24 23 23 23 23 24 23 24
4 4 2 2 4 4 7 7 7 5 7 7 8 4 7 9 9 9 7 9 13 16 16 15 17 20 19 17 16 16 17 19 20 20 21 22 24 24 24 24 24 23 24 24
7 4 3 4 1 5 8 10 9 7 7 7 9 6 7 7 7 6 5 7 13 16 15 13 16 15 15 19 19 18 19 18 19 20 20 20 22 23 24 23 21 21 21 21
13 17 14 16 15 15 11 11 9 9 9 8 9 12 7 7 6 6 7 12 15 15 15 16 17 15 16 22 23 21 19 19 18 18 21 21 22 23 24 24 27 26 26 27
13 21 15 19 21 15 15 14 13 10 12 11 9 11 9 9 5 6 6 12 13 14 16 20 19 19 20 22 23 23 20 20 20 20 20 21 20 17 17 19 20 20 22 25
17 21 19 22 24 19 18 19 19 16 16 16 13 10 9 10 6 8 10 14 16 20 22 22 20 20 21 22 23 22 20 20 19 20 20 20 19 18 15 12 13 16 16 17
16 16 19 22 15 19 12 14 18 17 16 15 12 13 12 11 11 12 13 22 24 21 23 24 21 24 25 24 23 20 19 19 21 21 20 20 21 20 20 19 18 19 15 16
17 17 22 22 20 20 14 13 15 16 16 12 12 12 14 13 12 14 19 23 21 21 22 26 23 22 25 25 22 21 19 19 18 17 19 20 21 22 21 21 19 20 20 17
17 16 12 12 13 14 15 13 13 13 9 13 12 14 18 19 21 19 22 23 18 12 26 28 28 27 28 26 22 21 19 19 17 17 18 19 21 22 21 21 20 22 21 22
10 9 4 8 11 14 11 10 9 12 12 13 16 23 23 17 16 19 21 28 31 27 32 32 30 29 31 29 25 21 20 17 15 18 19 21 21 21 21 22 21 22 22 25
5 10 10 8 6 7 6 4 6 7 9 13 15 15 11 12 15 15 21 22 19 19 26 29 28 32 33 29 25 21 19 17 19 19 20 21 22 22 24 24 24 25 24 24
10 10 9 7 8 7 6 6 6 11 15 14 10 7 9 6 8 14 20 18 16 11 21 26 29 35 33 28 24 20 19 20 19 18 18 19 21 22 24 25 26 25 24 25
9 9 8 7 8 6 7 9 11 10 14 12 12 4 5 3 11 17 19 9 7 9 25 30 32 34 31 28 24 20 22 22 20 18 18 19 20 21 25 26 26 25 25 26
5 5 5 5 5 8 9 11 10 8 12 12 9 8 8 14 11 8 7 4 4 10 21 29 31 29 28 28 24 23 22 21 21 20 20 20 19 24 25 25 25 25 25 25
3 4 5 6 5 5 11 13 14 14 12 12 13 10 9 9 12 14 10 4 10 15 22 24 26 26 27 26 25 22 20 20 21 20 20 21 20 21 26 26 26 25 24 24
3 3 4 5 5 7 9 12 14 14 12 12 10 10 6 3 5 4 2 7 13 15 19 21 22 24 24 26 23 21 22 21 22 21 22 21 21 23 27 26 25 25 24 24
3 4 3 7 9 6 4 5 8 12 15 13 10 6 5 3 3 1 0 10 13 17 19 22 22 22 23 21 19 20 22 23 23 22 23 26 25 23 23 23 24 24 23 23
6 7 5 5 4 3 5 8 9 8 8 8 10 9 7 4 2 1 2 7 13 18 17 17 18 22 22 18 18 21 22 26 28 29 27 23 22 22 22 21 21 22 23 23
4 3 6 9 8 11 10 9 4 8 8 7 6 5 5 4 3 1 3 5 10 14 14 16 18 19 17 17 19 19 21 24 26 26 24 22 21 20 20 21 20 20 21 21
3 4 5 5 7 10 13 10 7 7 8 9 9 10 5 3 2 1 2 5 8 9 10 11 15 17 20 19 19 20 20 21 22 22 22 21 20 19 19 20 20 20 20 20
Wind_Direction
266 326 348 346 304 253 244 271 209 202 196 206 202 198 202 214 223 224 227 210 213 210 204 190 194 201 204 207 199 192 186 184 184 181 180 179 175 175 179 186 189 189 188 193
260 242 241 247 259 280 285 273 258 235 259 187 220 211 214 227 221 227 223 217 215 209 212 191 196 197 197 196 194 192 189 185 179 177 175 175 177 182 184 186 187 189 193 201
229 219 265 244 216 221 231 227 239 236 248 241 217 191 209 237 223 228 222 215 207 196 197 204 203 199 198 200 195 194 194 185 181 180 179 182 183 184 184 185 188 193 199 196
229 157 235 235 191 206 218 236 230 238 257 253 225 210 220 227 205 222 230 225 219 208 200 218 215 204 202 200 197 196 195 188 187 185 185 188 188 189 190 193 197 200 196 191
201 218 263 279 247 184 186 249 39 266 254 259 184 196 254 163 228 231 218 232 225 235 232 223 211 201 194 189 195 196 195 193 191 189 189 192 193 195 198 200 200 200 196 191
269 251 235 228 342 346 191 210 21 18 9 10 178 200 261 305 257 241 230 225 203 223 213 197 192 191 184 184 191 196 200 201 199 198 199 201 203 201 204 208 205 200 196 197
241 255 250 326 305 320 188 360 349 8 350 0 3 276 297 307 289 287 263 211 180 181 177 183 178 180 179 184 193 203 201 204 204 205 204 205 203 205 205 203 201 197 198 195
219 230 245 299 48 58 352 237 270 262 252 265 249 277 285 297 296 272 226 177 162 146 150 160 171 177 171 186 198 197 198 202 206 206 206 204 202 202 202 200 196 194 194 190
221 278 202 232 221 188 166 215 228 233 252 256 275 267 296 295 294 276 235 176 172 145 140 155 163 178 159 184 180 179 186 195 202 207 205 205 197 190 187 195 188 182 182 182
296 264 323 90 213 228 217 233 249 250 278 291 274 270 288 299 297 259 200 188 172 154 163 155 165 162 167 169 170 178 183 186 192 197 195 198 202 201 190 185 181 177 176 179
286 282 280 270 267 269 261 249 239 252 267 263 272 284 270 289 288 252 208 189 193 175 161 163 165 166 166 171 171 173 179 182 187 193 193 188 200 200 200 209 208 192 193 190
256 268 264 272 273 275 275 264 269 272 279 270 254 268 274 280 249 227 215 182 185 180 160 165 166 167 173 178 179 173 175 177 180 182 188 188 189 196 212 225 214 218 222 217
254 262 265 261 272 266 257 263 268 267 265 267 262 251 239 264 266 229 213 189 189 194 179 170 174 168 182 179 181 177 177 182 187 186 186 179 182 175 164 191 209 209 214 216
256 263 271 267 264 268 250 249 255 263 258 249 240 252 257 254 259 218 216 209 209 191 180 179 179 183 190 185 184 184 192 191 189 191 189 185 183 180 177 168 170 176 195 191
269 260 252 264 270 268 262 253 252 257 259 248 240 243 254 253 254 239 217 214 202 189 183 188 181 185 192 186 178 181 191 187 193 194 197 192 185 183 181 175 173 172 178 182
302 294 278 260 262 273 264 250 241 250 259 266 260 247 235 234 250 247 214 194 171 191 191 185 192 195 189 188 187 186 184 189 187 193 191 183 183 178 175 175 175 176 179 180
297 308 273 260 261 263 255 248 258 271 272 266 267 269 242 235 243 235 202 194 197 206 193 195 195 193 191 191 184 176 182 183 186 194 188 185 185 181 179 180 182 184 188 194
290 293 286 271 297 288 289 292 308 311 276 276 292 279 228 237 237 205 183 183 183 179 191 196 195 189 190 187 181 169 180 178 188 189 191 188 190 190 188 189 192 193 196 197
347 349 350 353 342 337 342 342 325 313 309 319 315 261 254 217 149 139 146 159 167 162 182 191 190 187 184 181 173 176 176 179 183 184 187 189 191 194 196 198 200 201 197 194
345 353 352 350 351 358 345 333 326 311 314 322 335 336 178 206 146 140 142 137 204 191 185 181 182 181 179 173 177 180 178 176 176 185 185 185 188 191 201 203 203 203 201 203
334 339 332 337 339 349 349 341 330 344 332 352 12 12 14 59 55 87 94 127 148 158 177 176 172 171 174 173 175 178 180 173 180 195 193 190 194 201 203 205 206 207 208 210
339 335 337 344 353 338 347 347 346 340 353 4 12 24 36 42 66 70 61 127 155 164 162 164 171 174 173 174 179 181 186 188 190 199 194 195 197 200 208 208 209 211 212 214
290 299 322 329 321 308 335 5 351 353 352 8 19 11 23 83 133 114 126 164 172 176 173 169 173 176 170 176 185 185 193 193 200 202 199 199 201 206 210 209 212 213 213 214
298 295 276 304 307 315 317 355 357 357 355 359 16 26 30 53 73 59 180 187 186 181 179 176 175 177 179 187 187 196 199 198 206 204 201 208 215 214 215 215 215 216 217 216
334 327 321 319 318 315 332 336 340 347 347 347 355 9 11 17 28 325 183 179 182 179 178 179 180 185 186 186 197 205 208 217 220 221 218 216 215 216 217 217 219 219 219 219
327 324 335 348 346 344 336 318 306 316 317 317 316 322 346 358 4 69 203 193 185 190 185 181 185 188 189 197 208 212 218 221 219 218 215 215 216 217 216 216 219 220 222 224
12 11 343 319 324 334 335 325 304 288 269 269 277 305 296 297 282 294 210 190 189 196 203 203 202 200 200 205 211 215 218 220 218 216 215 215 218 220 219 219 221 223 225 227